FW8143 Weather Reports


Display with metric or nautical units.
time (UTC)temp
F
wind
direction
speed
MPH
gust
MPH
rain 1hr
in
rain 24hr
in
rain mn
in
humidity
%
barometer
mb
20210625132919 60 103 3.0 7.0 0.00 0.00 0.00 56 1027.6
20210625132420 59 86 2.0 6.0 0.00 0.00 0.00 56 1027.6
20210625131919 59 96 2.0 7.0 0.00 0.00 0.00 57 1027.7
20210625131418 59 81 3.0 8.0 0.00 0.00 0.00 57 1027.7
20210625130920 59 96 3.0 8.0 0.00 0.00 0.00 57 1027.6
20210625130419 59 98 3.0 7.0 0.00 0.00 0.00 57 1027.6
20210625125917 59 107 3.0 7.0 0.00 0.00 0.00 58 1027.6
20210625125415 59 71 3.0 8.0 0.00 0.00 0.00 57 1027.6
20210625124916 59 84 3.0 8.0 0.00 0.00 0.00 57 1027.6
20210625124415 59 82 3.0 7.0 0.00 0.00 0.00 57 1027.6
20210625123914 59 80 4.0 9.0 0.00 0.00 0.00 57 1027.4
20210625123414 59 86 5.0 9.0 0.00 0.00 0.00 57 1027.4
20210625122919 59 84 5.0 8.0 0.00 0.00 0.00 57 1027.4
20210625122414 59 69 5.0 8.0 0.00 0.00 0.00 56 1027.3
20210625121915 59 86 5.0 9.0 0.00 0.00 0.00 56 1027.3
20210625121414 59 101 6.0 9.0 0.00 0.00 0.00 56 1027.3
20210625120910 59 84 6.0 10.0 0.00 0.00 0.00 56 1027.3
20210625120410 59 83 6.0 10.0 0.00 0.00 0.00 56 1027.2
20210625115912 60 96 6.0 10.0 0.00 0.00 0.00 56 1027.2
20210625115410 60 81 6.0 10.0 0.00 0.00 0.00 56 1027.1
20210625114911 60 91 6.0 10.0 0.00 0.00 0.00 56 1026.9
20210625114411 60 78 6.0 12.0 0.00 0.00 0.00 56 1026.9
20210625113910 60 96 7.0 13.0 0.00 0.00 0.00 55 1026.9
20210625113410 60 96 7.0 13.0 0.00 0.00 0.00 55 1026.9
20210625112911 60 82 6.0 11.0 0.00 0.00 0.00 56 1026.9
20210625112408 60 90 6.0 10.0 0.00 0.00 0.00 56 1026.9
20210625111909 60 98 6.0 11.0 0.00 0.00 0.00 56 1026.9
20210625111408 60 66 6.0 11.0 0.00 0.00 0.00 56 1026.9
20210625110909 60 85 6.0 11.0 0.00 0.00 0.00 56 1027.1
20210625110409 60 79 6.0 11.0 0.00 0.00 0.00 56 1026.9
20210625105908 60 82 7.0 11.0 0.00 0.00 0.00 55 1026.9
20210625105408 60 105 6.0 10.0 0.00 0.00 0.00 55 1026.9
20210625104909 60 87 5.0 8.0 0.00 0.00 0.00 55 1027.1
20210625104408 60 83 6.0 10.0 0.00 0.00 0.00 55 1027.1
20210625103908 60 69 6.0 12.0 0.00 0.00 0.00 55 1027.1
20210625103409 60 82 6.0 12.0 0.00 0.00 0.00 55 1027.2
20210625102908 60 78 6.0 11.0 0.00 0.00 0.00 55 1027.2
20210625102408 60 92 6.0 11.0 0.00 0.00 0.00 55 1027.2
20210625101909 60 84 6.0 11.0 0.00 0.00 0.00 55 1027.2
20210625101408 60 91 6.0 11.0 0.00 0.00 0.00 55 1027.2
20210625100907 60 87 5.0 11.0 0.00 0.00 0.00 55 1027.3
20210625100402 60 93 5.0 9.0 0.00 0.00 0.00 55 1027.2
20210625095856 60 80 6.0 9.0 0.00 0.00 0.00 54 1027.2
20210625095351 60 67 6.0 9.0 0.00 0.00 0.00 54 1027.2
20210625094843 60 82 6.0 10.0 0.00 0.00 0.00 54 1027.3
20210625094339 60 77 6.0 11.0 0.00 0.00 0.00 54 1027.4
20210625093832 60 86 7.0 11.0 0.00 0.00 0.00 54 1027.4
20210625093327 60 80 7.0 13.0 0.00 0.00 0.00 54 1027.4
20210625092820 60 73 7.0 12.0 0.00 0.00 0.00 54 1027.4
20210625092548 60 72 7.0 12.0 0.00 0.00 0.00 54 1027.3
20210625091807 60 82 7.0 12.0 0.00 0.00 0.00 54 1027.4
20210625091301 60 90 7.0 11.0 0.00 0.00 0.00 54 1027.4
20210625090756 60 96 7.0 11.0 0.00 0.00 0.00 54 1027.4
20210625090250 60 80 7.0 12.0 0.00 0.00 0.00 54 1027.6
20210625085744 60 84 7.0 12.0 0.00 0.00 0.00 54 1027.6
20210625085238 60 92 6.0 11.0 0.00 0.00 0.00 54 1027.4
20210625084732 60 92 6.0 11.0 0.00 0.00 0.00 53 1027.6
20210625084226 60 84 7.0 11.0 0.00 0.00 0.00 53 1027.6
20210625083719 60 90 7.0 10.0 0.00 0.00 0.00 53 1027.6
20210625083215 60 86 5.0 10.0 0.00 0.00 0.00 53 1027.6
20210625082708 60 83 5.0 11.0 0.00 0.00 0.00 52 1027.6
20210625082202 60 100 6.0 11.0 0.00 0.00 0.00 52 1027.6
20210625081656 60 93 6.0 10.0 0.00 0.00 0.00 52 1027.7
20210625081149 60 86 6.0 10.0 0.00 0.00 0.00 52 1027.7
20210625080643 60 83 6.0 10.0 0.00 0.00 0.00 51 1027.7
20210625080138 60 86 6.0 10.0 0.00 0.00 0.00 51 1027.8
20210625075632 60 94 6.0 9.0 0.00 0.00 0.00 51 1027.7
20210625075125 61 79 6.0 9.0 0.00 0.00 0.00 51 1027.8
20210625074620 61 82 7.0 10.0 0.00 0.00 0.00 51 1027.7
20210625074114 61 83 6.0 11.0 0.00 0.00 0.00 51 1027.8
20210625073607 61 91 6.0 11.0 0.00 0.00 0.00 51 1027.7
20210625073102 61 82 6.0 11.0 0.00 0.00 0.00 51 1027.8
20210625072556 61 76 6.0 11.0 0.00 0.00 0.00 51 1027.7
20210625072049 61 72 6.0 10.0 0.00 0.00 0.00 51 1027.7
20210625071543 61 88 5.0 11.0 0.00 0.00 0.00 51 1027.8
20210625071038 61 87 5.0 11.0 0.00 0.00 0.00 51 1027.8
20210625070532 60 84 6.0 11.0 0.00 0.00 0.00 50 1027.8
20210625070026 60 104 6.0 11.0 0.00 0.00 0.00 50 1027.8
20210625065519 61 107 6.0 11.0 0.00 0.00 0.00 50 1027.9
20210625065013 61 88 5.0 10.0 0.00 0.00 0.00 50 1027.8
20210625064508 61 84 6.0 8.0 0.00 0.00 0.00 50 1027.9
20210625064001 61 80 5.0 9.0 0.00 0.00 0.00 50 1027.9
20210625063457 61 82 5.0 9.0 0.00 0.00 0.00 50 1027.9
20210625062950 61 86 5.0 8.0 0.00 0.00 0.00 50 1027.9
20210625062443 61 80 5.0 10.0 0.00 0.00 0.00 50 1028.1
20210625061937 61 79 6.0 10.0 0.00 0.00 0.00 50 1028.1
20210625061432 61 84 6.0 10.0 0.00 0.00 0.00 49 1027.9
20210625060926 61 83 6.0 10.0 0.00 0.00 0.00 49 1027.8
20210625060420 61 76 5.0 8.0 0.00 0.00 0.00 49 1027.8
20210625055913 61 73 4.0 8.0 0.00 0.00 0.00 49 1027.8
20210625055408 61 71 5.0 9.0 0.00 0.00 0.00 49 1027.9
20210625054902 61 81 4.0 9.0 0.00 0.00 0.00 49 1027.9
20210625054356 61 67 2.0 8.0 0.00 0.00 0.00 49 1027.9
20210625053850 61 309 1.0 4.0 0.00 0.00 0.00 49 1027.9
20210625053343 61 40 2.0 6.0 0.00 0.00 0.00 49 1027.9
20210625052838 61 34 3.0 6.0 0.00 0.00 0.00 49 1027.9
20210625052332 61 19 3.0 6.0 0.00 0.00 0.00 49 1027.9
20210625051826 61 18 2.0 5.0 0.00 0.00 0.00 49 1028.1
20210625051320 61 68 2.0 5.0 0.00 0.00 0.00 48 1028.1
20210625050815 61 69 3.0 7.0 0.00 0.00 0.00 48 1028.2
20210625050309 62 74 3.0 7.0 0.00 0.00 0.00 48 1028.2
20210625045803 62 81 3.0 7.0 0.00 0.00 0.00 48 1028.2
20210625045256 62 82 3.0 7.0 0.00 0.00 0.00 47 1028.2
20210625044751 62 80 2.0 4.0 0.00 0.00 0.00 47 1028.1
20210625044245 62 76 3.0 7.0 0.00 0.00 0.00 47 1028.1
20210625043740 62 73 4.0 7.0 0.00 0.00 0.00 46 1028.1
20210625043234 62 73 5.0 9.0 0.00 0.00 0.00 46 1028.1
20210625042727 62 85 4.0 9.0 0.00 0.00 0.00 46 1027.8
20210625042221 62 88 3.0 7.0 0.00 0.00 0.00 46 1027.8
20210625041714 63 80 4.0 6.0 0.00 0.00 0.00 46 1027.7
20210625041207 63 76 4.0 8.0 0.00 0.00 0.00 46 1027.6
20210625040702 63 86 3.0 8.0 0.00 0.00 0.00 45 1027.6
20210625040156 63 84 3.0 8.0 0.00 0.00 0.00 45 1027.4
20210625035704 63 137 3.0 7.0 0.00 0.00 0.00 45 1027.4
20210625035143 63 86 4.0 7.0 0.00 0.00 0.00 44 1027.4
20210625034638 63 92 4.0 7.0 0.00 0.00 0.00 44 1027.4
20210625034132 64 74 4.0 7.0 0.00 0.00 0.00 44 1027.4
20210625033626 64 86 4.0 9.0 0.00 0.00 0.00 44 1027.4
20210625033120 64 87 5.0 9.0 0.00 0.00 0.00 44 1027.3
20210625032614 64 86 5.0 9.0 0.00 0.00 0.00 44 1027.2
20210625032108 64 83 6.0 10.0 0.00 0.00 0.00 44 1027.2
20210625031601 65 78 5.0 10.0 0.00 0.00 0.00 44 1027.2
20210625031056 65 76 5.0 9.0 0.00 0.00 0.00 43 1027.2
20210625030550 65 86 6.0 9.0 0.00 0.00 0.00 43 1027.2
20210625030043 66 78 6.0 10.0 0.00 0.00 0.00 43 1027.2
20210625025538 66 80 5.0 10.0 0.00 0.00 0.00 43 1027.2
20210625025032 67 90 4.0 9.0 0.00 0.00 0.00 41 1027.2
20210625024525 67 61 3.0 8.0 0.00 0.00 0.00 41 1027.2
20210625024020 67 83 3.0 4.0 0.00 0.00 0.00 41 1027.2
20210625023514 67 76 3.0 5.0 0.00 0.00 0.00 41 1027.2
20210625023007 68 67 3.0 7.0 0.00 0.00 0.00 41 1027.2
20210625022502 68 69 2.0 7.0 0.00 0.00 0.00 41 1027.2
20210625021956 68 95 1.0 4.0 0.00 0.00 0.00 40 1027.2
20210625021452 69 89 1.0 3.0 0.00 0.00 0.00 40 1027.1
20210625020944 69 89 1.0 4.0 0.00 0.00 0.00 40 1027.1
20210625020437 69 102 1.0 4.0 0.00 0.00 0.00 40 1026.9
20210625015932 69 121 0.0 2.0 0.00 0.00 0.00 40 1026.9
20210625015426 69 121 0.0 2.0 0.00 0.00 0.00 40 1027.1
20210625014919 69 122 0.0 2.0 0.00 0.00 0.00 41 1027.2
20210625014415 69 122 0.0 2.0 0.00 0.00 0.00 42 1027.2
20210625013908 69 122 1.0 6.0 0.00 0.00 0.00 41 1027.4
20210625013402 69 122 1.0 6.0 0.00 0.00 0.00 42 1027.4
20210625012856 68 123 0.0 3.0 0.00 0.00 0.00 41 1027.4
20210625012356 68 123 1.0 3.0 0.00 0.00 0.00 43 1027.4
20210625011856 68 123 1.0 3.0 0.00 0.00 0.00 43 1027.4
20210625011352 67 129 2.0 4.0 0.00 0.00 0.00 46 1027.6
20210625010852 67 124 1.0 4.0 0.00 0.00 0.00 47 1027.3
20210625010352 67 82 1.0 4.0 0.00 0.00 0.00 46 1027.2
20210625005852 67 78 1.0 5.0 0.00 0.00 0.00 46 1027.1
20210625005352 67 92 2.0 5.0 0.00 0.00 0.00 47 1027.2
20210625004850 67 74 3.0 8.0 0.00 0.00 0.00 47 1027.3
20210625004350 67 106 3.0 8.0 0.00 0.00 0.00 47 1027.3
20210625003850 67 85 2.0 8.0 0.00 0.00 0.00 47 1027.2
20210625003350 67 85 3.0 8.0 0.00 0.00 0.00 47 1027.4
20210625002853 67 82 4.0 10.0 0.00 0.00 0.00 48 1027.4
20210625002349 67 59 4.0 10.0 0.00 0.00 0.00 49 1027.6
20210625001850 67 351 3.0 5.0 0.00 0.00 0.00 50 1027.8
20210625001351 67 63 3.0 7.0 0.00 0.00 0.00 50 1028.1
20210625000849 67 355 2.0 7.0 0.00 0.00 0.00 51 1028.3
20210625000348 67 348 2.0 7.0 0.00 0.00 0.00 50 1028.7
20210624235849 67 290 4.0 14.0 0.00 0.00 0.00 50 1028.7
20210624235343 67 337 6.0 15.0 0.00 0.00 0.00 50 1028.4
20210624234842 67 234 5.0 15.0 0.00 0.00 0.00 48 1028.4
20210624234339 67 258 3.0 11.0 0.00 0.00 0.00 45 1028.4
20210624233838 67 252 4.0 10.0 0.00 0.00 0.00 45 1028.1
20210624233337 67 72 5.0 10.0 0.00 0.00 0.00 46 1028.2
20210624232834 67 323 2.0 9.0 0.00 0.00 0.00 48 1028.6
20210624232334 67 27 2.0 12.0 0.00 0.00 0.00 49 1028.8
20210624231834 67 273 3.0 12.0 0.00 0.00 0.00 49 1029.1
20210624231334 67 338 3.0 10.0 0.00 0.00 0.00 50 1029.2
20210624230834 67 230 4.0 14.0 0.00 0.00 0.00 51 1029.7
20210624230333 67 188 5.0 14.0 0.00 0.00 0.00 51 1029.8
20210624225834 67 213 7.0 15.0 0.00 0.00 0.00 49 1029.7
20210624225334 67 186 11.0 23.0 0.00 0.00 0.00 50 1029.7
20210624224833 67 182 12.0 23.0 0.00 0.00 0.00 49 1029.4
20210624224334 68 208 10.0 22.0 0.00 0.00 0.00 48 1029.2
20210624223830 69 225 12.0 30.0 0.00 0.00 0.00 49 1029.1
20210624223331 69 182 15.0 35.0 0.00 0.00 0.00 46 1029.2
20210624222830 70 241 16.0 35.0 0.00 0.00 0.00 45 1029.2
20210624222330 71 213 14.0 29.0 0.00 0.00 0.00 43 1028.8
20210624221829 72 184 14.0 29.0 0.00 0.00 0.00 38 1028.6
20210624221329 74 213 14.0 28.0 0.00 0.00 0.00 37 1028.4
20210624220831 75 240 14.0 32.0 0.00 0.00 0.00 35 1028.3
20210624220330 77 200 13.0 32.0 0.00 0.00 0.00 33 1028.3
20210624215830 79 209 12.0 27.0 0.00 0.00 0.00 31 1028.2
20210624215325 79 178 12.0 22.0 0.00 0.00 0.00 26 1027.8
20210624214828 80 221 11.0 22.0 0.00 0.00 0.00 25 1027.6
20210624214326 81 225 11.0 22.0 0.00 0.00 0.00 25 1027.6
20210624213825 82 267 9.0 22.0 0.00 0.00 0.00 24 1027.6
20210624213326 82 234 8.0 19.0 0.00 0.00 0.00 26 1027.4
20210624212826 83 152 9.0 20.0 0.00 0.00 0.00 27 1027.3
20210624212325 83 236 8.0 20.0 0.00 0.00 0.00 26 1027.2
20210624211828 83 254 10.0 21.0 0.00 0.00 0.00 26 1027.2
20210624211326 84 196 10.0 21.0 0.00 0.00 0.00 26 1027.2
20210624210822 84 157 8.0 20.0 0.00 0.00 0.00 26 1027.3
20210624210321 84 187 10.0 23.0 0.00 0.00 0.00 26 1027.3
20210624205820 85 245 11.0 23.0 0.00 0.00 0.00 25 1027.6
20210624205321 85 197 12.0 24.0 0.00 0.00 0.00 24 1027.4
20210624204819 86 204 11.0 24.0 0.00 0.00 0.00 24 1027.7
20210624204320 87 202 9.0 23.0 0.00 0.00 0.00 23 1027.6
20210624203817 87 140 8.0 23.0 0.00 0.00 0.00 24 1027.7
20210624203315 86 220 8.0 23.0 0.00 0.00 0.00 24 1028.1
20210624202816 86 223 10.0 23.0 0.00 0.00 0.00 26 1028.1
20210624202317 85 240 13.0 25.0 0.00 0.00 0.00 25 1028.1
20210624201815 86 191 11.0 25.0 0.00 0.00 0.00 24 1028.2
20210624201315 86 184 8.0 24.0 0.00 0.00 0.00 24 1028.1
20210624200815 86 190 6.0 17.0 0.00 0.00 0.00 25 1028.3
20210624200314 86 217 6.0 14.0 0.00 0.00 0.00 24 1028.2
20210624195814 86 250 7.0 18.0 0.00 0.00 0.00 24 1028.3
20210624195308 86 194 7.0 18.0 0.00 0.00 0.00 25 1028.3
20210624194807 86 228 8.0 21.0 0.00 0.00 0.00 25 1028.4
20210624194307 86 171 7.0 21.0 0.00 0.00 0.00 25 1028.3
20210624193808 86 254 8.0 17.0 0.00 0.00 0.00 25 1028.4
20210624193307 86 223 9.0 16.0 0.00 0.00 0.00 25 1028.4
20210624192809 86 215 10.0 20.0 0.00 0.00 0.00 25 1028.6
20210624192307 85 196 7.0 20.0 0.00 0.00 0.00 26 1028.6
20210624191808 85 160 5.0 16.0 0.00 0.00 0.00 26 1028.6
20210624191308 85 210 5.0 15.0 0.00 0.00 0.00 26 1028.8
20210624190807 85 242 5.0 15.0 0.00 0.00 0.00 26 1028.7
20210624190305 85 250 8.0 18.0 0.00 0.00 0.00 25 1028.9
20210624185805 85 219 8.0 18.0 0.00 0.00 0.00 26 1028.9
20210624185306 85 188 5.0 14.0 0.00 0.00 0.00 25 1028.9
20210624184806 85 202 5.0 14.0 0.00 0.00 0.00 26 1028.9
20210624184305 84 246 7.0 12.0 0.00 0.00 0.00 26 1029.2
20210624183806 83 157 6.0 12.0 0.00 0.00 0.00 27 1029.2
20210624183306 83 97 6.0 11.0 0.00 0.00 0.00 26 1029.2
20210624182803 82 178 6.0 11.0 0.00 0.00 0.00 27 1029.3
20210624182256 82 217 6.0 14.0 0.00 0.00 0.00 27 1029.4
20210624181751 81 266 5.0 14.0 0.00 0.00 0.00 28 1029.3
20210624181245 81 236 4.0 11.0 0.00 0.00 0.00 27 1029.4
20210624180739 81 249 4.0 11.0 0.00 0.00 0.00 27 1029.3
20210624180233 81 309 4.0 12.0 0.00 0.00 0.00 27 1029.3
20210624175727 80 321 4.0 12.0 0.00 0.00 0.00 28 1029.4
20210624175221 80 238 5.0 17.0 0.00 0.00 0.00 28 1029.4
20210624174715 80 241 6.0 17.0 0.00 0.00 0.00 28 1029.7
20210624174209 80 188 6.0 13.0 0.00 0.00 0.00 28 1029.7
20210624173702 80 261 6.0 13.0 0.00 0.00 0.00 28 1029.7
20210624173157 80 272 5.0 14.0 0.00 0.00 0.00 28 1029.7
20210624172651 80 278 5.0 13.0 0.00 0.00 0.00 29 1029.7
20210624172145 79 325 5.0 12.0 0.00 0.00 0.00 31 1029.7
20210624171639 79 183 3.0 10.0 0.00 0.00 0.00 30 1029.7
20210624171132 79 316 3.0 10.0 0.00 0.00 0.00 29 1029.6
20210624170627 79 340 4.0 9.0 0.00 0.00 0.00 30 1029.6
20210624170121 78 41 5.0 12.0 0.00 0.00 0.00 30 1029.4
20210624165615 78 290 5.0 12.0 0.00 0.00 0.00 31 1029.6
20210624165109 77 284 5.0 11.0 0.00 0.00 0.00 33 1029.6
20210624164603 77 281 5.0 12.0 0.00 0.00 0.00 32 1029.6
20210624164057 77 327 6.0 13.0 0.00 0.00 0.00 33 1029.6
20210624163551 76 14 7.0 13.0 0.00 0.00 0.00 35 1029.4
20210624163045 76 343 8.0 16.0 0.00 0.00 0.00 36 1029.6
20210624162539 75 278 7.0 16.0 0.00 0.00 0.00 36 1029.6
20210624162033 75 355 6.0 15.0 0.00 0.00 0.00 36 1029.6
20210624161527 74 279 6.0 14.0 0.00 0.00 0.00 37 1029.7
20210624161020 73 259 6.0 14.0 0.00 0.00 0.00 38 1029.7
20210624160514 73 349 6.0 15.0 0.00 0.00 0.00 40 1029.7
20210624160009 72 292 9.0 16.0 0.00 0.00 0.00 38 1029.7
20210624155502 72 348 8.0 16.0 0.00 0.00 0.00 39 1029.7
20210624154959 72 306 7.0 14.0 0.00 0.00 0.00 39 1029.8
20210624154459 72 334 6.0 13.0 0.00 0.00 0.00 39 1029.8
20210624153959 72 338 6.0 11.0 0.00 0.00 0.00 42 1029.9
20210624153459 72 265 6.0 15.0 0.00 0.00 0.00 41 1029.9
20210624152959 72 290 5.0 15.0 0.00 0.00 0.00 41 1029.9
20210624152459 71 342 5.0 14.0 0.00 0.00 0.00 42 1029.9
20210624151958 71 343 5.0 14.0 0.00 0.00 0.00 43 1029.9
20210624151502 70 295 6.0 14.0 0.00 0.00 0.00 45 1029.9
20210624150959 69 329 7.0 15.0 0.00 0.00 0.00 46 1030.1
20210624150459 68 292 7.0 15.0 0.00 0.00 0.00 47 1030.1
20210624145959 67 5 5.0 13.0 0.00 0.00 0.00 49 1029.9
20210624145459 66 295 6.0 11.0 0.00 0.00 0.00 51 1030.1
20210624144955 65 339 8.0 13.0 0.00 0.00 0.00 51 1030.1
20210624144455 65 345 8.0 15.0 0.00 0.00 0.00 52 1030.1
20210624143956 64 344 8.0 15.0 0.00 0.00 0.00 53 1030.1
20210624143455 64 355 8.0 16.0 0.00 0.00 0.00 55 1029.8
20210624142955 63 12 9.0 16.0 0.00 0.00 0.00 55 1029.9
20210624142455 63 0 8.0 17.0 0.00 0.00 0.00 56 1029.9
20210624141948 62 355 7.0 17.0 0.00 0.00 0.00 57 1030.1
20210624141443 62 355 5.0 11.0 0.00 0.00 0.00 56 1030.1
20210624140937 62 327 5.0 10.0 0.00 0.00 0.00 57 1029.9
20210624140431 62 322 5.0 10.0 0.00 0.00 0.00 58 1029.9
20210624135924 62 333 4.0 10.0 0.00 0.00 0.00 57 1029.9
20210624135418 61 349 5.0 8.0 0.00 0.00 0.00 58 1029.9
20210624134913 61 18 6.0 10.0 0.00 0.00 0.00 59 1029.8
20210624134407 61 15 6.0 10.0 0.00 0.00 0.00 58 1029.9
20210624133901 61 0 7.0 12.0 0.00 0.00 0.00 58 1029.8
20210624133355 61 19 8.0 12.0 0.00 0.00 0.00 58 1029.9